Wind_Speed
19 13 14 17 16 19 20 20 20 19 17 15 14 12 15 15 9 12 12 12 16 15 15 18 17 20 19 12 14 18 21 21 18 15 14 15 15 16 20 25 26 26 26 26 28 31 30 27 26 26 26 28 28 24 22 22 21 20 21 23 23 23 22 20 19 19 19 19 18 16 15 14 14 12 11 10 9 8 8 7 7 5 3 3 3 2
18 14 17 20 20 20 21 21 21 21 20 14 12 12 14 14 9 14 13 11 13 13 13 18 17 20 21 13 14 17 18 18 19 20 21 22 22 24 26 26 26 25 24 25 29 33 31 27 27 26 25 26 27 26 24 22 22 22 22 22 23 22 21 19 18 19 19 18 17 16 15 13 13 12 11 10 9 9 7 5 4 3 2 2 3 3
15 15 19 21 19 19 19 20 21 22 20 13 10 11 11 11 10 14 14 12 12 10 10 18 17 16 20 17 14 17 16 16 21 22 23 24 25 29 31 27 25 24 25 27 30 34 32 28 27 25 25 25 25 27 26 23 23 22 22 21 21 20 20 19 16 15 16 17 16 14 13 13 12 11 11 10 9 8 6 3 2 2 2 2 3 4
13 14 19 20 19 20 19 21 22 18 16 12 10 10 9 12 12 10 11 11 10 9 10 15 15 13 16 18 15 17 19 18 21 23 21 19 16 16 17 17 23 26 27 29 32 34 31 29 27 23 22 25 26 27 26 25 24 23 23 22 21 19 20 20 16 13 13 13 13 13 12 13 12 11 11 10 8 7 5 4 3 3 3 4 4 5
14 13 18 20 19 22 21 20 20 15 12 13 14 12 10 13 15 9 9 11 10 11 13 13 11 11 14 18 15 16 20 19 20 21 19 17 14 13 10 8 16 24 26 27 26 27 27 27 26 22 21 24 25 24 25 25 25 24 24 23 20 18 18 18 16 14 13 12 12 13 13 12 11 11 11 9 8 7 6 4 4 4 3 4 5 6
15 15 19 22 20 23 22 18 19 16 11 13 15 16 12 11 14 13 10 11 10 10 14 12 9 10 13 17 16 14 16 18 19 19 19 18 14 16 18 16 20 21 17 14 11 14 22 25 26 21 19 22 24 24 25 24 23 22 21 20 19 19 19 18 16 15 15 14 13 12 12 12 11 10 10 9 8 7 6 5 4 4 4 5 6 6
12 17 19 21 22 23 21 17 19 20 12 10 15 18 17 13 14 15 11 10 8 8 13 14 10 8 11 17 18 15 16 18 19 18 20 23 19 16 19 21 23 15 9 7 12 13 17 25 23 16 14 19 21 23 24 22 21 20 18 18 17 19 20 18 17 17 17 16 14 12 12 11 11 11 10 9 8 8 6 5 4 4 5 6 6 5
13 19 19 21 23 20 18 15 17 21 14 9 14 18 19 16 13 13 12 10 8 7 12 17 14 9 9 16 18 17 17 18 20 18 17 22 23 20 18 15 12 8 14 12 12 19 21 23 17 13 15 18 20 22 22 21 21 20 18 18 17 17 18 17 18 19 18 18 16 14 13 12 11 11 11 10 8 8 6 4 3 3 5 6 5 4
14 20 19 21 20 15 15 15 17 20 15 10 13 15 18 17 12 11 12 10 9 9 10 15 15 11 8 12 16 19 21 19 21 19 15 17 18 18 18 13 13 18 21 19 17 20 23 19 14 15 19 20 21 22 21 20 19 19 19 18 18 17 17 17 17 18 18 18 16 14 13 13 11 11 10 9 7 6 4 3 3 3 3 4 5 4
14 19 17 16 14 12 14 16 18 19 14 13 13 13 16 16 13 12 11 9 9 10 10 14 16 11 9 11 13 17 19 19 20 18 16 19 20 21 21 17 23 24 23 23 24 23 23 21 21 22 22 20 20 20 18 18 17 17 18 17 17 16 16 15 16 17 18 17 16 14 13 12 11 10 10 9 7 5 4 3 3 2 3 4 5 5
14 18 17 14 13 14 16 17 19 18 16 15 12 11 14 14 11 10 8 8 8 10 13 17 19 14 10 11 12 13 15 17 17 16 17 21 24 24 20 25 28 26 25 26 26 21 21 27 29 26 24 23 21 18 16 18 18 17 17 17 16 15 14 14 16 18 18 16 15 13 11 10 9 9 9 7 6 5 4 3 3 3 4 4 5 6
15 16 14 15 18 19 16 16 17 17 19 16 10 9 10 10 9 8 7 8 8 10 13 17 19 16 12 10 11 12 14 16 16 16 18 19 22 24 22 29 28 27 27 27 25 22 26 33 31 28 28 26 23 21 21 22 21 19 18 17 17 16 16 16 17 18 15 13 12 11 9 9 9 8 7 7 6 5 4 2 2 3 4 4 4 5
14 13 14 16 20 21 15 13 14 15 17 16 11 11 10 9 9 8 9 9 9 11 11 15 18 16 12 11 13 13 15 17 16 16 18 17 21 23 26 30 27 27 27 23 24 28 34 35 29 29 31 29 27 26 26 24 22 21 20 18 17 18 19 20 18 14 11 10 9 9 10 9 8 8 7 7 6 4 3 2 2 3 3 3 3 4
12 13 18 18 16 19 18 13 12 12 15 16 12 12 12 9 9 10 10 10 11 10 10 15 17 13 11 11 16 16 15 18 18 20 22 21 22 20 28 33 28 28 28 25 30 36 38 36 31 30 33 31 30 29 28 27 26 24 22 20 20 21 21 20 17 12 9 9 9 9 9 8 8 8 7 6 4 3 3 4 3 3 3 2 3 4
14 12 16 17 12 17 21 15 13 13 15 15 12 13 12 10 9 9 9 10 10 10 11 14 13 11 10 9 14 16 8 10 16 20 19 17 19 16 28 35 30 31 31 30 35 40 41 39 33 30 31 32 32 32 31 30 29 27 25 24 25 25 24 22 19 13 8 7 8 8 8 8 7 7 5 4 4 4 4 5 3 2 2 2 3 3
16 11 13 18 14 17 20 17 17 16 14 12 12 13 12 11 9 7 9 8 7 8 10 10 7 9 8 4 9 13 8 7 10 11 11 11 14 17 28 31 28 29 31 30 33 37 39 36 29 27 29 29 29 31 33 32 30 28 28 29 29 27 25 23 20 16 11 8 8 8 7 7 6 5 4 4 4 4 4 3 1 2 3 3 3 3
14 10 15 20 16 17 20 18 18 16 10 9 12 14 12 13 11 7 8 5 5 7 8 8 8 8 7 5 7 11 10 12 10 8 8 11 16 22 24 24 24 25 27 28 29 31 33 30 25 26 27 26 26 27 30 31 30 30 30 30 29 27 25 22 19 18 15 12 10 8 6 5 5 5 5 4 3 2 2 1 1 2 1 2 3 4
11 9 15 21 18 19 22 20 17 16 12 9 11 13 12 13 12 8 8 5 6 9 7 10 13 11 8 8 10 12 11 11 13 12 11 12 15 18 20 21 22 22 23 26 26 27 28 27 25 26 24 23 25 24 25 29 30 30 31 29 27 26 24 21 19 19 17 14 11 8 6 5 4 4 4 3 2 2 1 0 1 2 1 2 4 4
12 8 13 19 17 18 21 18 15 17 19 14 10 11 10 11 12 10 9 8 9 9 7 11 14 12 10 9 11 15 15 13 14 13 13 14 15 18 20 21 20 20 22 25 26 26 26 25 25 26 23 21 25 24 25 28 28 28 28 26 24 24 22 19 18 18 17 13 10 9 7 5 4 3 3 2 2 2 1 0 1 1 2 3 4 4
12 7 9 16 18 16 15 14 12 15 17 15 12 12 10 8 10 10 8 7 8 9 8 11 12 10 11 11 11 15 16 16 16 15 14 15 16 18 20 23 23 23 25 27 27 26 25 25 24 25 23 23 24 24 25 26 25 25 25 23 23 22 20 18 17 16 15 13 10 9 6 5 5 3 3 2 2 1 1 1 1 2 3 4 4 6
11 8 8 13 17 14 12 12 14 15 14 13 12 13 12 9 8 9 8 8 8 9 8 8 9 8 7 9 12 13 14 15 15 15 14 14 17 18 19 23 26 25 27 29 29 28 25 24 24 25 24 24 24 23 23 24 23 23 23 22 23 21 19 18 17 16 16 13 10 8 7 6 5 3 2 2 2 2 2 2 2 1 3 3 4 6
9 8 8 10 13 13 13 14 17 18 17 13 10 12 13 11 9 9 10 11 9 8 8 7 8 6 4 6 10 11 11 13 15 16 14 14 18 17 18 24 26 25 27 30 31 30 26 24 25 26 25 25 26 26 24 23 24 24 24 23 23 22 20 18 17 17 16 13 10 8 7 5 4 3 3 3 2 3 3 2 1 1 2 3 3 4
8 6 9 10 11 12 15 17 17 18 18 16 13 12 12 12 12 10 10 11 10 9 8 8 8 3 1 1 5 7 8 8 9 11 10 12 16 15 17 24 25 25 29 31 29 27 24 26 28 27 27 28 27 26 25 25 25 26 25 21 20 21 20 18 17 16 14 13 10 9 7 5 4 4 3 3 4 5 4 3 1 0 1 2 2 3
8 6 8 10 10 11 14 17 17 17 18 17 15 14 13 13 14 12 9 8 8 10 9 7 7 4 3 4 4 5 6 7 7 10 12 11 13 17 20 24 24 26 31 32 29 25 25 26 28 29 28 27 27 26 26 25 24 24 23 20 18 19 18 16 14 13 14 13 11 8 7 5 4 4 5 6 7 6 5 3 2 1 1 1 2 3
7 7 9 9 10 12 13 14 15 16 16 13 13 16 17 17 16 13 10 7 7 12 12 9 7 5 3 1 3 5 8 9 8 10 13 13 16 20 21 22 24 27 31 32 29 27 27 28 29 30 27 26 26 26 25 24 23 22 21 19 18 18 17 15 13 13 13 12 9 7 6 5 4 6 7 9 9 7 5 4 4 3 2 2 3 3
9 9 10 9 11 13 12 12 12 13 13 11 14 19 19 20 19 14 10 7 8 11 12 11 6 6 5 3 6 8 10 11 11 11 13 15 17 19 20 22 24 27 31 33 30 28 28 28 28 29 27 25 26 25 24 24 23 22 21 19 18 17 17 15 13 12 11 9 8 7 6 6 7 9 10 10 9 7 6 5 4 3 3 4 4 5
7 9 12 12 11 11 11 10 10 12 13 13 16 20 19 20 20 15 10 9 8 8 9 11 9 8 7 8 9 9 10 11 12 11 13 14 16 19 21 21 21 24 29 31 29 27 28 27 27 29 28 26 27 26 23 23 22 22 21 18 16 16 16 15 13 11 10 9 8 7 7 9 11 12 12 11 9 8 7 6 5 5 6 7 7 7
6 9 15 14 12 13 12 12 12 13 15 16 17 19 19 20 21 17 13 12 11 8 8 12 14 11 8 10 10 10 11 11 9 10 12 14 16 18 19 19 19 21 25 28 27 28 28 27 27 27 26 27 28 24 21 22 23 22 20 19 18 17 14 13 12 11 9 8 8 8 9 12 14 14 13 11 10 9 7 6 6 8 9 10 10 10
5 9 14 14 13 12 10 12 15 16 16 17 18 18 18 20 21 18 15 15 14 10 8 10 14 14 8 10 11 11 12 12 10 11 13 14 16 17 19 20 19 21 24 24 25 27 27 26 25 23 23 28 29 24 23 24 24 23 21 19 20 18 14 13 12 10 9 8 8 10 13 15 15 14 13 12 10 9 8 9 10 11 12 12 12 12
8 7 12 14 12 8 7 9 13 15 17 18 18 18 17 17 19 18 17 17 15 13 12 9 9 12 8 8 9 11 14 14 12 12 14 16 18 19 21 20 19 21 24 23 23 23 23 23 24 23 25 30 29 27 28 28 26 25 22 18 18 17 14 13 12 9 9 8 8 12 15 15 15 15 13 12 11 10 10 11 12 13 13 13 13 12
9 6 11 13 9 8 8 7 8 10 13 16 17 18 18 17 18 18 17 17 15 14 14 8 5 9 6 11 12 12 14 14 14 13 14 17 19 21 22 21 20 21 23 23 24 23 22 25 26 25 28 31 30 29 30 29 26 24 19 16 16 16 14 14 11 9 9 9 10 13 15 14 15 15 12 10 9 10 12 14 14 14 13 12 12 12
8 5 9 11 8 8 7 6 8 10 12 15 17 19 19 17 16 15 15 15 15 14 13 9 7 6 7 14 12 10 12 12 13 13 13 16 20 22 22 22 21 21 22 24 26 27 28 29 29 29 30 32 31 30 27 25 22 19 16 14 15 15 15 14 11 10 10 12 13 14 14 13 13 12 10 9 9 10 12 14 13 12 11 10 12 12
8 5 7 9 7 8 8 6 7 9 12 13 13 16 19 17 16 15 14 15 16 13 11 9 8 6 8 13 11 10 12 11 12 13 14 17 21 20 20 22 21 23 25 26 27 29 31 31 31 32 32 30 28 26 23 20 18 15 14 13 12 12 12 12 12 12 13 14 14 14 14 13 13 11 10 9 9 10 11 12 11 11 10 11 12 13
9 6 6 8 6 7 9 6 2 6 10 6 3 10 16 16 16 17 16 16 16 14 10 9 10 6 4 11 12 11 11 12 13 14 14 18 21 18 18 23 24 24 26 25 26 29 30 29 30 31 31 28 25 22 20 19 16 14 13 12 11 11 11 11 13 14 14 14 15 14 14 14 13 12 11 10 9 10 11 11 11 10 10 11 12 12
10 7 5 6 5 3 6 6 3 5 6 0 3 3 7 9 13 15 15 16 17 16 15 13 10 4 2 4 10 11 9 11 13 14 15 18 20 19 21 25 27 27 28 27 26 27 30 30 30 29 28 25 22 20 19 18 16 16 15 13 13 13 12 12 13 12 13 16 17 15 14 14 13 12 11 10 10 11 11 11 11 11 10 10 10 10
8 7 5 6 5 3 4 5 5 3 1 2 0 2 2 5 10 12 12 14 15 15 15 14 10 6 3 4 10 13 12 12 12 13 16 18 19 21 24 27 29 29 27 26 27 29 31 30 26 23 22 20 19 19 18 18 17 15 14 13 13 13 13 13 13 13 13 15 16 15 15 15 13 12 11 11 11 11 11 11 11 10 10 10 9 9
8 7 5 6 6 4 4 6 4 3 1 4 4 3 3 5 9 11 10 11 12 12 12 12 12 9 6 5 9 15 17 14 10 11 16 18 20 22 25 27 29 27 26 29 30 29 27 25 23 21 20 20 20 19 17 17 17 16 15 15 15 14 13 13 14 13 14 14 15 14 13 14 13 12 12 12 12 11 11 11 11 10 10 11 10 9
9 8 7 6 5 4 5 5 5 4 3 4 5 6 3 2 5 8 10 9 12 14 14 13 12 10 8 7 11 17 16 11 7 9 16 20 20 23 26 28 27 27 30 34 33 28 24 24 24 24 23 23 21 19 18 18 18 17 16 15 15 15 13 13 14 13 14 14 14 13 13 13 13 13 13 12 12 11 11 11 11 11 10 11 11 10
10 9 7 7 6 5 6 5 5 5 2 1 5 7 5 2 2 4 8 8 6 11 17 16 11 9 9 10 13 14 12 7 6 11 20 23 22 25 29 29 27 29 33 33 30 28 27 26 25 25 25 24 22 20 19 19 18 17 15 15 15 15 15 14 14 13 14 14 14 14 13 13 13 12 12 12 12 11 11 12 12 12 11 11 12 11
9 7 7 8 7 7 7 5 3 2 1 3 3 4 4 5 3 5 9 5 5 4 9 14 12 10 12 13 12 11 8 4 4 14 23 24 23 26 29 29 29 31 32 29 28 28 27 26 26 26 25 24 22 20 19 18 17 16 15 15 15 15 15 15 14 14 14 14 14 14 14 14 14 13 12 12 12 12 12 12 12 12 12 11 11 11
7 7 7 8 7 6 7 6 2 2 2 3 2 4 4 4 3 5 7 3 6 8 4 5 7 12 14 12 11 8 3 1 5 19 27 25 23 26 28 29 30 31 30 29 28 28 26 25 26 25 24 22 21 20 19 18 17 16 15 15 15 15 15 15 15 15 15 14 15 14 13 14 16 16 14 12 12 13 12 12 12 12 12 12 11 12
7 7 6 7 7 5 6 7 4 2 1 4 1 6 4 1 3 2 1 3 5 4 3 1 8 12 12 11 9 4 1 5 15 25 28 26 26 27 28 31 32 31 30 30 29 27 26 26 25 24 22 21 20 19 18 17 17 16 16 16 16 15 15 16 16 15 15 15 15 13 13 16 20 19 15 12 13 13 13 12 12 12 12 12 12 13
5 5 6 6 6 5 5 6 5 3 0 3 0 4 2 1 2 1 1 2 3 2 0 5 8 9 10 11 8 4 7 13 21 26 27 28 29 29 30 33 33 32 31 30 28 28 28 27 26 24 22 21 19 18 17 17 17 17 16 16 16 15 16 16 16 16 16 15 15 16 18 21 21 17 13 12 12 13 13 13 12 12 12 12 13 13
2 3 4 4 3 5 5 4 1 2 3 5 4 3 4 5 4 3 3 1 2 3 2 4 7 7 8 9 9 9 11 15 19 24 26 27 28 30 32 33 33 32 30 28 28 28 27 27 26 24 22 20 18 17 16 16 16 17 17 17 17 17 16 16 16 17 17 16 17 21 22 20 17 14 13 13 13 13 13 13 13 12 11 11 12 12
1 1 1 1 2 1 1 3 3 3 3 5 6 5 5 5 4 4 6 3 3 5 4 2 5 6 7 9 12 10 10 15 20 23 24 26 28 30 32 33 32 29 28 29 29 28 27 27 26 24 22 20 18 16 15 15 17 18 17 18 21 20 18 16 17 18 18 17 18 19 18 16 14 14 14 13 13 13 13 13 12 11 11 10 10 11
3 3 4 4 2 2 5 5 5 5 4 4 5 5 3 2 2 2 4 4 5 6 5 4 4 5 7 10 12 11 11 16 20 21 21 25 28 30 32 33 29 26 28 31 29 28 28 27 25 23 21 19 17 16 15 14 16 17 17 20 23 20 17 17 18 18 18 18 17 16 16 15 15 15 14 14 13 13 12 12 11 10 10 10 10 10
5 4 2 3 5 5 3 4 5 4 4 5 5 4 3 2 1 2 3 4 5 5 5 5 4 5 6 8 12 13 13 16 19 19 20 23 26 30 33 31 27 26 30 31 29 28 29 28 25 23 21 19 17 15 15 15 15 16 18 20 20 18 17 18 19 18 18 17 17 16 16 16 16 16 15 14 13 12 11 11 11 11 11 11 10 9
2 2 4 3 3 1 2 6 7 6 6 5 4 3 3 2 2 2 2 2 3 2 3 3 2 4 6 8 12 13 15 17 19 20 22 23 24 29 30 26 25 29 31 29 28 30 29 26 24 23 21 19 17 15 15 16 15 15 18 18 17 17 19 18 17 18 18 18 17 17 17 17 18 17 15 15 16 15 14 12 11 13 15 15 14 12
1 3 4 2 3 2 1 5 7 7 7 6 3 2 4 3 1 2 2 2 2 1 1 2 2 4 6 9 12 14 15 17 19 21 22 22 25 29 28 25 27 31 30 27 29 31 29 25 23 23 21 19 17 16 16 16 16 16 19 20 18 19 20 18 17 18 19 18 18 17 17 17 17 15 16 19 21 21 19 16 14 17 19 19 18 17
2 3 5 3 2 3 2 3 4 4 4 5 4 3 3 1 1 2 3 2 1 0 2 2 2 4 6 8 12 14 15 17 21 23 21 21 26 30 30 29 31 32 30 28 28 29 29 26 23 23 21 19 17 17 17 17 17 18 21 23 21 21 21 19 18 18 19 19 19 19 18 17 15 15 17 20 21 20 19 16 16 18 19 18 17 17
5 4 6 4 2 4 6 7 6 3 3 5 5 2 2 2 2 2 2 2 2 1 1 2 3 6 6 7 11 14 14 18 22 22 20 22 27 31 32 33 34 33 31 30 30 30 31 29 25 23 21 19 18 18 17 18 19 20 21 23 23 23 22 20 20 21 21 21 20 20 19 17 17 17 17 19 19 18 17 16 16 16 16 15 14 13
Wind_Direction
193 198 207 210 209 206 207 211 217 227 230 225 219 212 219 226 211 215 213 173 188 205 206 209 207 219 227 201 192 193 198 199 168 168 208 197 184 188 194 199 199 196 191 187 184 182 179 178 180 179 175 174 174 177 176 172 172 175 177 178 178 180 183 182 181 182 180 178 175 172 174 175 177 179 179 179 177 181 190 198 202 204 205 211 254 256
195 208 213 208 209 209 206 212 215 223 232 233 228 216 216 224 207 209 209 165 188 213 207 211 211 216 221 208 197 196 199 203 184 179 195 194 181 187 202 202 198 196 190 187 185 182 179 177 178 175 173 177 177 172 170 170 173 179 180 178 180 182 183 182 181 183 180 177 176 173 173 173 177 176 172 175 176 181 194 206 208 192 182 237 282 282
201 216 214 205 209 212 207 211 215 220 226 229 233 225 212 214 203 202 197 169 191 218 208 209 214 218 218 214 207 200 203 205 201 196 192 192 185 187 197 196 193 195 191 190 188 185 181 176 173 172 174 176 171 165 166 172 174 176 177 173 178 182 184 185 183 185 183 178 174 169 169 168 170 171 165 171 175 177 185 184 187 181 186 237 257 256
204 212 210 205 205 212 211 210 212 217 222 223 226 222 207 204 203 199 187 176 194 217 222 213 210 219 217 216 213 204 206 207 207 206 196 198 197 193 200 195 192 197 194 191 190 186 177 171 167 166 175 173 165 162 165 174 174 173 177 176 176 181 187 190 186 189 190 183 173 164 166 166 166 168 163 165 169 167 172 172 185 195 197 217 233 250
210 201 202 206 202 208 214 208 207 212 214 216 218 217 209 204 209 211 181 178 201 218 230 229 213 215 216 213 211 202 206 208 207 204 196 197 196 197 215 223 214 210 201 195 193 187 177 166 161 167 179 169 159 162 167 176 178 177 180 177 178 186 193 194 190 191 190 189 183 169 169 167 163 167 160 160 165 163 169 175 186 196 202 223 234 252
212 198 194 203 204 207 212 207 203 207 209 209 216 227 234 221 215 217 191 181 202 209 214 225 221 209 211 214 209 198 203 208 207 198 195 198 189 187 190 199 224 226 207 189 158 174 181 158 152 173 179 157 153 167 174 178 182 184 184 179 185 192 193 191 185 186 188 191 192 179 174 168 161 162 155 161 169 160 167 175 179 196 219 240 243 253
210 201 194 199 205 204 207 208 199 203 212 208 207 221 238 242 225 216 201 191 207 205 196 209 229 214 206 217 209 199 204 208 211 201 193 196 192 191 188 194 220 223 183 159 84 93 151 148 148 163 153 146 160 173 175 176 180 183 182 184 191 191 189 186 178 180 185 190 194 188 179 170 161 158 154 165 171 157 166 176 179 214 245 260 258 246
202 202 197 199 205 201 204 208 197 201 212 210 200 205 221 236 235 215 203 203 215 215 194 198 223 234 217 214 200 198 210 210 215 210 187 191 191 191 194 194 201 126 107 137 104 94 130 149 153 143 140 162 174 176 174 172 176 175 174 184 192 187 185 183 179 181 186 191 196 187 174 166 161 161 158 165 169 159 168 179 187 231 262 282 281 255
192 205 201 197 201 197 201 201 192 199 211 219 206 195 208 223 230 219 212 216 221 226 209 191 208 237 237 215 195 198 214 213 215 207 177 182 187 191 201 180 137 110 107 128 131 126 142 161 181 172 169 176 173 173 169 162 169 172 171 183 189 182 182 184 183 186 189 192 194 183 170 160 156 158 155 153 158 159 172 189 197 225 260 286 296 292
191 208 197 186 194 193 199 202 198 200 206 221 214 191 199 212 217 221 220 222 220 230 229 195 195 222 239 225 204 200 211 212 213 206 183 183 190 200 198 150 122 122 119 127 140 150 161 178 198 187 170 162 158 159 159 158 170 173 173 181 182 179 182 185 187 192 197 194 187 178 168 157 151 154 152 149 152 153 163 183 191 228 258 268 283 290
192 196 187 183 202 204 201 205 207 203 203 216 217 191 194 202 207 217 222 227 223 226 232 213 201 210 228 229 213 205 209 210 211 210 199 189 190 200 179 132 125 131 130 139 149 156 171 183 188 175 157 154 156 157 168 178 180 172 172 175 174 176 179 184 194 199 200 191 179 173 166 159 153 151 150 149 151 150 158 175 194 239 252 260 274 274
193 190 190 191 208 212 204 205 204 197 201 209 204 187 189 191 198 209 213 224 231 224 222 219 215 215 221 229 219 205 202 210 214 211 211 198 189 191 162 132 135 142 143 150 153 158 173 179 176 166 159 159 160 164 174 183 179 169 171 173 173 177 179 184 196 202 197 182 172 165 161 161 152 144 147 152 155 157 165 183 220 254 253 256 271 272
193 194 197 197 209 212 203 199 192 186 199 203 188 188 194 186 192 204 203 208 225 228 212 209 218 222 222 229 228 206 192 208 219 213 214 208 200 190 159 147 156 159 158 159 158 165 174 176 171 167 167 165 166 169 174 180 179 173 173 176 179 181 181 184 190 199 194 174 164 157 155 153 145 146 152 154 159 160 170 206 231 249 248 244 259 264
187 190 196 199 205 208 207 202 185 180 197 199 184 191 198 187 188 198 201 206 218 226 218 208 214 225 224 223 234 228 200 197 209 217 216 209 212 195 152 151 165 168 170 171 169 172 177 178 174 171 171 170 172 174 176 180 182 180 177 181 188 183 179 182 185 191 188 165 156 154 154 151 152 158 154 151 169 179 205 216 213 228 236 232 247 259
191 187 193 200 192 196 208 206 187 187 198 198 191 199 207 200 192 196 202 209 212 212 214 213 211 222 221 201 223 237 218 185 202 213 209 201 211 188 144 147 157 161 167 169 171 175 178 179 175 173 173 171 172 174 177 180 182 183 178 178 185 179 173 181 181 181 192 173 156 157 160 160 165 166 149 159 195 202 214 215 204 220 227 222 237 264
200 194 188 199 193 191 202 199 192 197 197 189 193 208 215 206 196 199 212 223 233 218 207 210 215 223 226 200 217 227 202 178 205 197 171 173 182 146 132 144 152 156 162 161 167 175 176 176 174 172 172 171 170 171 175 179 178 176 171 170 176 176 176 180 176 175 184 179 170 174 173 163 162 162 152 175 198 200 213 211 199 235 233 244 272 307
200 193 181 189 193 194 201 199 196 200 193 179 198 212 212 210 207 199 211 233 256 232 202 197 213 216 219 222 226 231 201 176 191 189 165 174 163 133 129 148 153 154 158 157 164 171 171 172 172 171 172 171 169 168 171 175 173 172 170 168 172 177 178 177 176 177 178 179 185 186 178 167 164 166 168 182 194 203 216 215 256 257 243 284 305 312
192 187 174 180 189 192 197 205 204 201 200 189 197 208 203 210 219 208 203 206 213 226 207 191 205 208 209 204 196 215 216 186 187 195 191 194 180 153 144 150 152 155 157 156 161 165 167 169 169 171 172 170 169 170 171 170 170 172 172 170 172 176 176 173 174 175 176 184 189 178 173 173 167 173 183 185 183 183 178 193 273 262 271 308 312 312
192 188 166 179 191 186 189 206 209 201 210 213 201 205 204 205 214 211 205 200 199 217 214 196 202 209 214 207 186 197 209 205 201 197 191 193 193 185 171 156 155 161 159 156 158 161 164 166 170 172 169 166 170 173 173 170 169 171 173 172 172 175 176 170 165 167 175 184 183 177 177 171 168 195 204 184 166 172 174 222 260 273 293 309 319 316
197 192 161 184 191 181 182 203 206 191 207 225 211 203 214 213 213 214 211 208 202 211 216 206 205 211 215 212 197 193 198 207 210 202 195 189 186 194 185 165 163 169 163 157 157 160 162 166 170 170 166 166 169 171 171 170 167 168 169 169 170 173 175 167 158 161 170 173 178 182 175 168 182 195 198 187 171 176 198 212 235 281 297 313 322 312
196 188 162 183 187 186 188 198 205 190 189 214 213 198 205 209 210 214 213 214 212 211 211 211 215 211 202 209 206 192 188 203 210 202 198 187 179 189 183 163 164 169 161 154 157 160 161 164 168 168 168 168 167 168 168 166 165 164 165 168 169 169 167 163 160 162 167 173 181 184 173 180 197 192 192 203 186 170 176 190 207 266 304 317 322 316
197 186 168 180 187 196 196 191 205 202 187 201 216 204 201 200 202 209 209 211 219 218 205 208 225 214 188 214 208 186 183 200 207 203 198 184 177 184 176 161 162 162 155 153 157 160 161 164 168 169 169 168 167 168 166 163 164 164 165 169 171 169 163 162 164 167 173 178 184 188 186 198 216 208 202 201 170 157 156 170 203 296 325 322 327 328
200 183 174 185 187 196 192 185 201 208 197 201 213 211 208 203 204 210 208 205 214 226 218 213 215 195 60 241 180 165 175 183 185 181 172 167 173 174 159 153 157 156 152 154 159 162 163 165 167 167 166 166 168 168 164 162 164 165 165 165 166 169 168 168 171 173 180 191 200 207 212 220 224 208 193 172 149 145 147 151 165 77 346 329 341 347
194 184 179 179 176 190 189 183 196 209 207 206 206 209 216 211 205 215 223 211 213 224 224 219 206 165 59 41 91 133 151 123 115 140 145 149 153 144 137 145 155 156 154 157 160 162 163 165 166 167 167 166 167 167 165 162 163 165 164 159 157 160 163 164 167 173 187 200 205 209 221 230 217 189 174 156 140 142 152 151 143 129 78 17 20 17
183 191 183 174 170 179 184 182 192 206 212 210 201 207 220 217 207 214 228 222 223 226 221 223 215 163 118 113 132 166 169 143 127 134 136 134 130 131 138 150 159 160 160 163 162 162 165 167 167 168 168 168 166 165 164 161 162 164 161 158 157 157 158 160 167 178 188 192 187 192 214 221 185 161 156 146 138 141 145 138 133 129 107 81 75 76
187 198 185 183 181 179 185 188 185 193 206 209 203 207 217 218 210 207 219 219 216 220 219 225 211 118 107 183 171 177 179 155 135 120 120 128 131 138 150 155 159 162 166 167 166 164 167 169 170 170 170 168 165 164 163 161 163 163 159 157 155 154 155 155 159 168 172 171 168 180 197 187 161 151 147 141 138 139 139 138 134 126 120 113 109 111
199 209 192 194 194 188 193 194 179 181 198 206 207 207 209 216 216 208 209 221 217 211 217 222 203 148 148 178 175 176 172 149 137 135 139 144 145 150 154 154 158 163 166 168 166 166 168 169 172 173 171 169 167 164 162 159 158 157 154 149 144 145 146 146 149 153 154 160 167 169 170 162 154 149 147 143 140 138 138 138 133 128 126 121 116 113
207 207 199 206 209 199 191 189 187 191 200 205 209 211 205 208 218 216 211 219 223 217 214 214 214 209 181 162 171 178 161 143 143 154 154 154 160 161 154 152 158 161 166 171 167 166 168 169 171 172 167 166 166 161 155 154 154 152 148 143 145 147 141 141 148 149 150 163 173 170 159 152 149 149 148 144 139 136 135 132 131 127 123 119 113 108
217 200 201 214 218 212 198 195 201 199 201 206 208 212 209 205 212 217 215 219 223 222 224 215 216 222 195 153 170 173 153 151 163 165 159 157 165 164 151 150 159 163 168 171 165 163 165 165 165 162 158 160 161 154 148 151 152 147 142 143 151 152 144 141 145 145 151 161 166 164 154 147 147 147 145 141 136 134 135 134 132 126 119 115 110 105
220 196 195 207 210 220 230 225 218 206 202 205 204 208 213 208 210 213 213 217 220 223 233 238 230 227 202 142 147 145 139 151 161 161 165 164 164 165 157 152 160 167 168 166 160 159 160 160 160 156 153 153 150 146 147 148 146 145 144 144 149 152 149 146 146 151 158 154 150 153 149 144 145 145 142 139 133 132 135 133 130 124 117 112 108 104
217 194 187 198 200 213 227 242 245 227 212 208 205 206 208 208 210 211 211 213 214 219 226 231 242 230 178 108 107 118 128 146 153 157 169 170 167 168 162 154 158 168 168 162 160 158 153 152 154 152 150 149 146 144 145 143 142 145 146 145 149 154 156 157 163 175 167 149 143 147 144 141 144 143 137 130 125 128 132 130 126 120 113 109 108 106
219 208 185 193 201 206 206 217 232 236 233 222 211 205 204 207 209 206 207 210 210 216 217 206 217 222 132 103 109 125 133 145 153 158 167 169 171 171 164 156 159 166 164 158 157 153 146 145 146 144 146 148 145 143 140 137 141 146 148 150 153 155 158 164 180 187 163 145 143 142 138 136 136 134 128 120 118 122 126 125 120 113 108 107 108 109
200 204 188 193 200 197 191 196 210 220 228 225 215 209 205 205 205 202 204 207 207 214 215 206 224 224 135 127 139 150 150 153 157 163 166 167 171 169 160 156 159 160 158 154 151 148 143 140 140 140 142 141 138 138 138 139 145 154 161 164 164 165 168 169 172 166 150 142 142 140 138 137 133 128 124 118 117 118 119 118 113 108 108 109 111 114
188 194 197 194 200 194 180 172 173 211 213 210 225 227 217 210 210 209 205 204 205 211 217 218 229 239 165 152 160 160 157 158 161 166 166 166 166 161 153 156 157 154 152 147 142 142 140 136 136 137 137 137 139 143 144 144 154 172 178 175 176 177 172 160 152 148 143 141 141 138 136 137 134 131 127 119 118 119 116 114 111 108 107 106 108 113
190 196 200 196 204 171 150 163 180 202 214 208 32 258 229 218 222 223 218 213 208 207 216 224 219 226 308 173 159 152 147 149 158 166 167 164 164 159 155 156 155 149 145 141 138 139 137 134 133 136 139 143 146 148 148 150 164 178 176 169 169 165 156 147 142 141 142 142 142 139 136 136 134 131 126 119 120 122 118 116 114 110 107 102 101 104
195 202 201 199 202 145 134 192 195 148 233 275 76 122 169 197 212 221 224 222 217 209 212 222 216 194 207 185 152 145 145 143 148 166 170 163 161 160 157 155 153 146 141 140 138 137 137 137 137 140 144 145 142 141 144 147 154 159 155 153 154 149 144 143 140 140 139 138 138 138 138 137 133 128 125 122 123 124 121 118 114 110 108 104 99 99
199 206 197 198 209 193 187 205 184 114 186 236 211 173 178 197 202 208 215 217 220 220 215 221 222 203 184 167 140 137 142 144 146 167 174 165 159 162 158 152 149 143 138 139 138 136 139 143 143 145 146 143 138 137 137 138 141 143 142 143 144 141 141 141 139 138 136 134 135 134 133 134 132 127 125 124 125 125 120 117 115 111 108 105 100 97
208 212 200 194 205 217 228 217 194 189 214 211 184 161 159 212 204 209 221 215 208 214 219 226 225 203 182 168 147 140 145 155 160 169 173 168 162 164 159 151 148 144 141 143 144 141 142 142 139 140 142 141 141 141 140 140 141 142 140 141 141 141 142 141 138 136 135 135 135 133 131 132 131 128 126 124 126 126 120 118 118 114 109 106 102 96
213 214 213 211 204 207 231 231 209 217 247 144 147 143 137 122 119 191 213 216 214 209 208 214 220 202 176 161 155 158 167 183 176 164 170 171 166 162 157 151 149 147 145 147 149 146 142 139 138 139 141 141 142 142 143 142 141 141 141 142 142 142 141 139 136 134 134 135 134 132 132 133 130 128 126 124 124 124 120 117 116 113 109 106 103 98
206 209 216 223 220 214 225 236 224 214 35 69 116 135 117 104 112 192 192 197 332 309 212 209 208 183 158 151 161 178 190 205 166 159 166 169 163 155 150 149 150 149 146 145 145 143 140 140 140 140 141 141 142 142 144 143 142 143 144 144 143 141 139 138 136 134 135 134 133 132 132 135 135 131 127 125 123 120 118 117 114 113 111 107 104 100
196 206 214 219 220 216 220 228 216 99 39 29 121 139 119 115 156 196 182 160 349 337 294 234 178 150 145 153 168 178 192 316 141 152 159 162 154 148 148 148 149 148 146 145 144 142 141 141 141 141 142 143 142 143 145 145 145 146 145 145 144 141 139 139 137 136 137 136 135 134 134 140 145 141 131 125 123 118 116 115 113 113 112 110 108 104
186 196 211 219 220 217 218 224 208 124 359 312 105 114 110 162 170 173 245 344 342 318 288 124 129 142 154 164 170 169 104 128 142 148 156 158 154 153 154 151 149 149 148 148 147 145 142 142 142 143 143 143 144 145 147 147 145 145 146 146 145 142 140 139 138 137 138 136 135 135 134 140 146 143 132 124 121 119 117 115 113 113 112 112 112 110
190 195 202 207 211 214 218 224 215 160 89 312 14 103 65 19 123 132 291 332 357 337 172 123 135 161 172 165 158 117 102 129 142 147 152 154 154 156 157 154 152 151 149 148 149 147 145 144 145 144 144 145 146 147 149 147 145 144 146 146 144 142 139 139 138 137 137 136 136 135 135 138 140 137 127 122 121 120 119 117 116 114 113 112 113 111
281 247 214 197 208 217 214 215 201 127 63 40 56 86 69 64 67 19 336 359 72 41 49 116 139 165 173 151 130 112 118 136 146 146 147 152 154 156 158 157 153 150 149 149 149 149 147 145 145 145 145 146 147 148 149 148 146 145 144 145 146 143 140 139 140 139 138 137 135 133 133 134 133 128 123 123 122 121 120 118 116 115 112 110 111 110
306 285 140 79 349 330 88 75 81 107 86 69 82 98 92 85 77 8 333 337 57 54 36 73 122 151 166 136 116 119 138 145 147 148 152 158 160 159 159 157 150 148 151 152 151 151 150 147 145 145 145 147 149 150 148 149 149 145 144 150 153 148 142 140 141 139 137 134 132 132 132 130 128 126 125 124 123 120 120 119 119 120 120 118 118 116
154 143 107 102 142 115 86 92 112 115 112 114 110 105 106 111 91 13 338 356 39 47 33 33 79 130 159 145 135 143 150 146 149 153 156 162 164 162 160 157 152 151 154 154 153 154 153 150 146 145 146 147 149 149 148 148 150 147 147 153 154 148 141 141 140 136 134 133 133 134 133 129 128 127 126 125 123 120 120 122 124 124 122 122 121 121
137 163 160 160 177 176 134 118 119 109 118 141 141 126 128 131 79 359 333 352 12 25 32 34 70 123 150 161 160 157 152 151 154 154 156 163 165 161 158 156 153 155 158 157 155 155 154 151 148 146 146 146 147 149 148 146 146 148 149 151 150 146 142 141 138 136 134 134 133 134 133 133 131 128 124 122 121 121 122 125 128 130 127 125 125 124
115 210 237 204 157 125 88 112 118 121 128 139 157 143 108 85 52 17 334 312 320 352 42 47 94 143 155 165 162 157 160 161 157 154 159 164 162 157 156 154 153 157 159 157 156 156 153 148 146 146 146 146 147 147 146 144 144 147 148 147 147 146 144 140 138 138 136 134 134 136 136 134 129 126 130 135 136 136 137 136 144 152 149 141 137 135
256 266 275 227 141 108 100 125 133 140 133 126 134 89 55 46 26 9 357 307 284 273 106 84 118 157 165 164 160 163 170 167 159 159 161 160 157 157 156 154 155 158 158 155 156 159 156 149 146 147 146 146 146 146 144 144 144 146 150 150 148 147 146 142 139 138 135 134 136 135 133 132 130 135 151 157 153 150 151 152 158 163 158 150 146 145
318 326 335 326 157 138 85 75 92 122 119 100 94 78 49 26 313 355 10 23 18 59 160 138 145 167 173 165 164 172 179 170 160 158 160 161 161 158 155 155 157 157 156 153 153 157 157 153 149 148 146 145 146 145 143 144 145 148 153 155 152 150 148 143 138 137 136 137 138 135 135 139 140 141 154 162 161 158 158 158 160 163 161 158 156 157
7 8 4 1 51 68 49 46 53 75 101 91 87 83 54 38 20 15 30 39 21 18 178 183 175 177 185 179 169 173 176 166 157 154 156 164 166 162 158 158 156 154 154 153 150 151 154 153 150 149 146 144 145 144 142 145 147 149 153 155 153 151 147 142 139 137 137 139 139 136 137 142 142 140 148 159 162 159 155 152 153 157 158 158 159 160
Height
1451 1451 1446 1440 1438 1439 1440 1440 1440 1437 1433 1432 1432 1435 1436 1431 1428 1427 1424 1424 1429 1435 1436 1434 1437 1436 1429 1426 1428 1431 1434 1435 1443 1452 1454 1454 1458 1461 1463 1464 1464 1463 1464 1466 1468 1470 1472 1474 1476 1480 1483 1485 1489 1492 1495 1498 1501 1503 1504 1506 1508 1510 1512 1513 1515 1517 1518 1519 1520 1522 1524 1525 1527 1528 1529 1531 1532 1533 1534 1535 1535 1536 1537 1537 1538 1539
1446 1443 1435 1433 1436 1436 1437 1438 1439 1438 1433 1431 1431 1431 1432 1429 1428 1427 1424 1425 1428 1433 1434 1432 1434 1434 1428 1426 1426 1429 1432 1433 1438 1449 1454 1454 1459 1464 1464 1462 1461 1461 1463 1464 1465 1467 1469 1471 1474 1478 1481 1484 1487 1490 1494 1497 1500 1502 1504 1506 1509 1511 1513 1515 1517 1518 1518 1519 1521 1522 1524 1525 1527 1527 1529 1530 1531 1532 1533 1534 1535 1535 1536 1537 1538 1538
1440 1434 1430 1432 1434 1434 1436 1437 1437 1437 1434 1433 1432 1429 1430 1427 1426 1425 1423 1425 1429 1432 1433 1431 1433 1432 1426 1424 1424 1426 1430 1431 1433 1440 1445 1449 1456 1461 1461 1459 1458 1459 1460 1461 1462 1464 1466 1469 1473 1477 1480 1483 1486 1490 1494 1496 1499 1502 1505 1507 1510 1513 1516 1517 1518 1519 1520 1520 1521 1522 1524 1526 1527 1527 1529 1530 1530 1531 1532 1534 1535 1535 1536 1537 1538 1538
1433 1429 1428 1430 1432 1434 1435 1434 1436 1436 1435 1434 1432 1430 1430 1425 1425 1427 1426 1428 1431 1431 1431 1429 1431 1430 1425 1424 1423 1423 1427 1429 1431 1434 1439 1444 1449 1454 1457 1457 1456 1457 1457 1458 1460 1462 1466 1470 1474 1478 1481 1483 1486 1489 1493 1495 1498 1501 1504 1508 1512 1515 1517 1517 1519 1521 1522 1523 1522 1522 1524 1526 1527 1527 1528 1529 1530 1531 1532 1533 1534 1535 1536 1537 1538 1538
1424 1423 1426 1428 1430 1433 1433 1432 1434 1436 1436 1434 1431 1429 1427 1423 1423 1424 1425 1430 1433 1432 1429 1427 1432 1431 1425 1425 1423 1422 1424 1427 1429 1432 1437 1442 1445 1451 1458 1460 1458 1457 1457 1458 1460 1464 1467 1470 1475 1480 1482 1482 1486 1491 1493 1495 1497 1499 1502 1507 1511 1515 1517 1517 1519 1520 1523 1526 1525 1524 1525 1526 1526 1527 1528 1529 1530 1531 1532 1533 1534 1535 1536 1536 1537 1537
1419 1420 1422 1425 1427 1428 1429 1429 1431 1435 1436 1435 1433 1428 1423 1422 1422 1422 1424 1430 1437 1438 1430 1429 1440 1437 1424 1422 1423 1421 1424 1426 1427 1430 1435 1440 1444 1451 1456 1457 1457 1457 1459 1461 1464 1467 1471 1473 1478 1481 1481 1483 1489 1493 1494 1496 1498 1500 1503 1506 1508 1511 1514 1516 1518 1519 1521 1525 1527 1526 1525 1525 1525 1526 1528 1529 1530 1531 1532 1533 1533 1534 1535 1535 1536 1536
1415 1415 1417 1422 1424 1425 1427 1427 1428 1432 1434 1435 1432 1429 1426 1424 1423 1422 1424 1431 1438 1437 1427 1427 1439 1439 1428 1423 1420 1420 1424 1426 1425 1428 1434 1439 1445 1451 1452 1451 1454 1457 1460 1465 1468 1471 1475 1477 1478 1480 1482 1487 1492 1494 1495 1497 1499 1502 1504 1506 1508 1511 1513 1515 1518 1519 1520 1523 1526 1526 1525 1525 1525 1526 1528 1529 1530 1531 1532 1532 1533 1534 1534 1535 1535 1535
1410 1413 1415 1418 1419 1421 1425 1425 1424 1427 1431 1431 1426 1427 1430 1427 1425 1424 1426 1431 1431 1428 1425 1424 1430 1435 1431 1420 1414 1419 1425 1427 1425 1426 1431 1435 1441 1447 1448 1449 1456 1461 1462 1468 1474 1475 1479 1480 1479 1482 1486 1489 1492 1494 1496 1498 1500 1503 1505 1506 1508 1512 1514 1516 1518 1520 1521 1522 1524 1525 1525 1525 1525 1526 1527 1528 1529 1530 1531 1532 1533 1533 1534 1534 1534 1535
1409 1412 1411 1413 1416 1418 1420 1421 1422 1425 1429 1426 1420 1424 1429 1428 1428 1426 1427 1429 1426 1427 1429 1424 1427 1438 1432 1413 1410 1419 1425 1426 1425 1426 1431 1434 1436 1443 1447 1450 1456 1462 1465 1469 1476 1478 1481 1484 1484 1483 1485 1488 1491 1493 1496 1499 1502 1503 1505 1507 1509 1512 1515 1517 1519 1521 1521 1523 1524 1524 1524 1524 1524 1525 1526 1527 1528 1529 1530 1531 1532 1533 1534 1533 1533 1534
1408 1409 1408 1412 1417 1418 1419 1420 1421 1424 1427 1423 1419 1423 1427 1428 1429 1428 1429 1427 1427 1435 1434 1422 1424 1439 1435 1414 1410 1418 1421 1423 1422 1422 1430 1434 1437 1441 1447 1453 1456 1461 1464 1467 1473 1475 1477 1483 1486 1485 1485 1488 1491 1494 1499 1501 1503 1504 1506 1507 1510 1512 1515 1518 1520 1522 1523 1524 1524 1523 1523 1522 1523 1524 1525 1526 1527 1529 1530 1531 1532 1532 1533 1533 1533 1533
1403 1406 1409 1415 1419 1417 1418 1419 1419 1421 1425 1423 1421 1423 1427 1428 1428 1429 1428 1426 1435 1443 1432 1417 1415 1430 1437 1419 1406 1412 1414 1416 1418 1419 1423 1429 1435 1439 1445 1452 1455 1458 1462 1466 1470 1472 1474 1478 1483 1484 1485 1487 1491 1495 1500 1501 1501 1503 1506 1508 1511 1513 1515 1519 1522 1524 1525 1525 1523 1522 1522 1521 1522 1523 1524 1526 1527 1528 1529 1530 1531 1531 1532 1532 1532 1532
1401 1407 1409 1413 1418 1415 1415 1417 1416 1419 1423 1423 1424 1427 1432 1434 1434 1436 1435 1435 1446 1445 1426 1414 1413 1423 1435 1421 1402 1403 1407 1410 1415 1416 1417 1421 1428 1436 1443 1448 1453 1457 1461 1466 1468 1469 1472 1476 1479 1481 1483 1485 1488 1493 1496 1498 1500 1502 1505 1508 1510 1511 1514 1519 1524 1525 1525 1523 1521 1521 1521 1521 1521 1522 1524 1525 1527 1528 1529 1529 1530 1530 1531 1531 1532 1532
1404 1409 1409 1414 1416 1411 1413 1415 1415 1420 1421 1421 1425 1431 1438 1443 1446 1450 1448 1445 1447 1436 1419 1416 1420 1423 1424 1413 1400 1399 1404 1408 1410 1411 1413 1417 1422 1430 1439 1444 1449 1453 1457 1461 1465 1468 1471 1474 1476 1478 1479 1481 1485 1488 1492 1496 1498 1501 1503 1506 1509 1511 1514 1518 1522 1524 1523 1520 1520 1520 1520 1520 1521 1522 1524 1525 1526 1527 1528 1529 1529 1529 1530 1531 1531 1530
1409 1410 1409 1413 1412 1408 1409 1408 1413 1420 1419 1418 1423 1429 1435 1439 1452 1460 1452 1445 1443 1431 1418 1414 1420 1423 1415 1406 1401 1397 1398 1403 1406 1409 1412 1415 1420 1427 1435 1442 1446 1450 1454 1457 1462 1466 1468 1471 1475 1477 1478 1480 1481 1485 1489 1493 1495 1497 1500 1504 1507 1510 1513 1516 1518 1519 1521 1520 1519 1519 1519 1520 1521 1522 1523 1524 1525 1526 1527 1527 1528 1528 1529 1529 1529 1529
1409 1413 1408 1408 1408 1406 1405 1402 1409 1417 1416 1415 1416 1421 1424 1424 1439 1451 1443 1440 1439 1431 1422 1416 1420 1423 1415 1406 1400 1396 1395 1399 1405 1408 1411 1415 1420 1427 1435 1442 1446 1449 1452 1456 1460 1464 1466 1469 1473 1476 1478 1480 1480 1482 1485 1489 1492 1494 1496 1501 1505 1509 1512 1514 1514 1515 1519 1521 1520 1520 1519 1520 1520 1521 1522 1523 1524 1525 1525 1526 1526 1527 1526 1526 1527 1526
1403 1408 1402 1402 1404 1403 1404 1402 1405 1411 1413 1414 1414 1417 1418 1410 1417 1431 1430 1427 1429 1429 1425 1421 1419 1413 1405 1401 1397 1396 1399 1402 1407 1409 1412 1418 1422 1429 1437 1442 1447 1450 1451 1455 1459 1463 1466 1469 1473 1475 1478 1480 1481 1481 1483 1486 1490 1493 1496 1500 1505 1508 1511 1512 1512 1512 1517 1521 1521 1520 1519 1519 1520 1521 1521 1522 1523 1523 1524 1524 1524 1525 1524 1524 1524 1525
1401 1403 1396 1399 1403 1402 1404 1402 1400 1405 1410 1414 1416 1415 1408 1402 1406 1422 1429 1422 1426 1435 1427 1420 1421 1412 1406 1407 1402 1400 1402 1405 1410 1412 1414 1420 1424 1430 1437 1441 1446 1449 1450 1454 1458 1462 1466 1470 1473 1475 1477 1479 1481 1482 1483 1485 1489 1492 1496 1500 1504 1508 1509 1510 1510 1509 1513 1518 1519 1519 1519 1519 1519 1520 1520 1521 1521 1522 1522 1522 1523 1523 1523 1523 1523 1523
1397 1400 1392 1396 1405 1403 1404 1404 1400 1401 1404 1410 1415 1409 1402 1404 1405 1411 1427 1432 1436 1442 1427 1417 1423 1420 1417 1417 1408 1405 1408 1408 1412 1414 1415 1419 1423 1430 1437 1440 1444 1446 1449 1453 1457 1462 1466 1469 1472 1474 1476 1478 1480 1483 1484 1485 1489 1492 1495 1499 1503 1506 1508 1509 1508 1508 1511 1515 1517 1518 1518 1519 1519 1519 1520 1520 1520 1520 1521 1521 1521 1521 1521 1521 1522 1522
1391 1398 1396 1397 1403 1404 1405 1409 1407 1402 1401 1403 1406 1402 1401 1413 1414 1408 1419 1433 1440 1443 1430 1418 1420 1420 1416 1411 1405 1407 1412 1411 1412 1413 1415 1418 1420 1426 1433 1437 1441 1446 1450 1453 1457 1462 1465 1468 1471 1472 1474 1477 1480 1482 1483 1485 1488 1491 1494 1498 1501 1504 1506 1507 1506 1507 1510 1512 1514 1516 1517 1518 1519 1519 1519 1519 1519 1519 1519 1520 1520 1520 1520 1520 1521 1521
1386 1395 1404 1401 1399 1403 1406 1409 1409 1405 1404 1403 1401 1400 1400 1406 1411 1406 1407 1418 1431 1439 1433 1424 1423 1418 1407 1399 1399 1405 1408 1409 1411 1411 1412 1416 1419 1423 1427 1432 1439 1445 1449 1452 1456 1461 1464 1467 1470 1472 1474 1476 1478 1480 1481 1484 1487 1490 1493 1497 1500 1503 1505 1505 1505 1506 1508 1510 1513 1515 1516 1517 1518 1518 1518 1518 1518 1518 1518 1518 1519 1519 1519 1519 1520 1520
1384 1392 1406 1404 1398 1404 1407 1404 1402 1401 1406 1408 1403 1402 1403 1402 1402 1404 1406 1408 1416 1427 1430 1431 1428 1412 1395 1391 1393 1398 1403 1405 1407 1407 1409 1412 1417 1421 1425 1430 1437 1443 1448 1451 1455 1459 1463 1466 1469 1471 1474 1476 1478 1480 1481 1484 1487 1490 1493 1496 1498 1500 1502 1503 1504 1505 1507 1509 1512 1514 1515 1516 1516 1517 1517 1517 1517 1517 1517 1517 1518 1518 1518 1518 1519 1519
1386 1390 1403 1406 1403 1405 1402 1397 1396 1393 1398 1406 1403 1397 1398 1400 1404 1415 1419 1409 1404 1410 1416 1425 1427 1408 1391 1389 1388 1391 1399 1401 1401 1403 1406 1409 1415 1420 1424 1430 1436 1441 1447 1450 1453 1457 1460 1464 1467 1470 1473 1475 1477 1479 1481 1484 1487 1489 1492 1494 1496 1498 1499 1501 1502 1504 1507 1509 1512 1513 1514 1514 1515 1515 1516 1516 1516 1515 1516 1517 1517 1517 1518 1518 1519 1519
1386 1389 1399 1403 1401 1399 1395 1394 1396 1394 1394 1400 1401 1395 1393 1396 1402 1415 1421 1411 1405 1405 1400 1407 1418 1408 1393 1389 1389 1391 1397 1398 1399 1401 1404 1409 1416 1421 1425 1431 1437 1442 1446 1448 1452 1456 1459 1462 1467 1469 1472 1474 1476 1478 1481 1483 1486 1488 1490 1492 1494 1495 1497 1500 1501 1504 1507 1509 1511 1512 1513 1513 1514 1514 1515 1514 1514 1514 1515 1516 1516 1517 1517 1517 1518 1518
1388 1392 1397 1399 1396 1393 1391 1392 1395 1396 1396 1396 1397 1395 1394 1393 1394 1401 1404 1403 1407 1408 1402 1406 1416 1412 1400 1394 1394 1396 1398 1401 1403 1405 1409 1414 1418 1423 1428 1433 1438 1443 1446 1448 1451 1454 1458 1461 1465 1468 1470 1472 1475 1477 1479 1482 1485 1487 1489 1491 1493 1494 1497 1499 1501 1504 1506 1508 1511 1511 1512 1512 1513 1513 1514 1513 1513 1514 1515 1516 1516 1516 1517 1517 1517 1517
1392 1394 1394 1399 1402 1400 1399 1399 1399 1398 1394 1390 1392 1395 1394 1390 1393 1400 1399 1401 1409 1407 1401 1409 1415 1410 1404 1401 1400 1400 1402 1406 1409 1410 1413 1417 1421 1427 1431 1435 1439 1442 1445 1447 1449 1453 1456 1459 1462 1466 1469 1471 1474 1476 1478 1481 1484 1486 1487 1490 1492 1494 1496 1499 1501 1503 1505 1508 1510 1510 1511 1511 1511 1512 1512 1512 1513 1513 1514 1515 1516 1516 1516 1516 1517 1517
1393 1390 1389 1396 1402 1405 1405 1400 1397 1397 1393 1389 1390 1395 1396 1392 1395 1401 1404 1409 1415 1408 1401 1406 1410 1410 1409 1406 1405 1405 1405 1409 1413 1416 1419 1422 1426 1430 1432 1436 1440 1441 1444 1446 1449 1452 1455 1458 1461 1464 1467 1470 1473 1475 1477 1479 1482 1485 1488 1489 1491 1493 1495 1498 1500 1503 1505 1508 1509 1509 1510 1510 1510 1511 1511 1512 1512 1513 1514 1515 1515 1516 1516 1516 1517 1517
1391 1387 1384 1387 1390 1393 1395 1389 1385 1389 1394 1395 1394 1394 1396 1395 1392 1396 1405 1410 1409 1407 1406 1402 1403 1414 1417 1410 1407 1407 1407 1412 1417 1420 1423 1426 1429 1431 1434 1437 1440 1442 1445 1447 1449 1452 1454 1457 1460 1463 1466 1469 1472 1474 1476 1478 1482 1485 1487 1489 1491 1494 1496 1498 1501 1503 1506 1507 1508 1509 1509 1509 1509 1510 1510 1511 1512 1513 1514 1515 1515 1516 1516 1516 1517 1517
1392 1389 1383 1383 1384 1382 1382 1384 1384 1388 1394 1396 1396 1395 1394 1395 1394 1395 1403 1406 1401 1407 1412 1401 1397 1408 1411 1406 1407 1407 1408 1416 1420 1421 1424 1427 1430 1432 1434 1437 1440 1442 1445 1447 1449 1452 1454 1457 1460 1463 1466 1469 1472 1474 1476 1479 1483 1486 1488 1490 1492 1494 1496 1498 1501 1503 1505 1506 1507 1508 1508 1508 1508 1509 1510 1511 1512 1513 1514 1515 1516 1516 1516 1517 1517 1517
1391 1390 1385 1385 1386 1379 1378 1383 1385 1386 1391 1392 1394 1394 1392 1394 1396 1397 1400 1400 1398 1405 1409 1401 1397 1401 1401 1404 1408 1405 1409 1418 1422 1423 1426 1429 1431 1433 1435 1438 1440 1442 1445 1447 1449 1452 1455 1458 1460 1463 1466 1469 1473 1475 1477 1480 1483 1486 1488 1490 1491 1493 1495 1497 1500 1502 1503 1505 1506 1507 1506 1507 1508 1508 1510 1511 1512 1514 1514 1515 1516 1516 1517 1517 1517 1518
1389 1389 1387 1388 1390 1387 1386 1387 1383 1383 1387 1388 1390 1393 1392 1393 1394 1397 1400 1399 1398 1403 1401 1398 1401 1400 1397 1402 1405 1404 1410 1416 1420 1424 1427 1429 1431 1433 1435 1438 1440 1442 1445 1447 1450 1452 1455 1458 1460 1463 1466 1469 1472 1474 1476 1479 1482 1485 1487 1488 1490 1492 1494 1495 1498 1499 1502 1504 1506 1506 1506 1507 1508 1509 1511 1512 1513 1514 1514 1515 1516 1516 1517 1518 1518 1519
1389 1388 1386 1388 1395 1397 1394 1392 1389 1387 1387 1387 1390 1392 1393 1395 1395 1396 1398 1399 1402 1405 1401 1402 1407 1403 1396 1400 1406 1409 1413 1416 1419 1424 1427 1429 1432 1433 1435 1438 1440 1442 1444 1446 1449 1452 1454 1457 1460 1463 1465 1468 1470 1472 1475 1478 1481 1484 1486 1487 1488 1490 1491 1493 1495 1498 1502 1504 1505 1506 1506 1507 1508 1510 1512 1513 1514 1514 1515 1516 1516 1517 1518 1519 1519 1520
1392 1390 1387 1391 1400 1401 1397 1399 1400 1396 1394 1394 1393 1392 1392 1396 1396 1397 1398 1399 1402 1405 1405 1408 1411 1403 1398 1403 1409 1413 1416 1417 1420 1423 1426 1429 1431 1433 1434 1436 1440 1442 1444 1446 1449 1451 1454 1457 1460 1463 1465 1467 1470 1473 1476 1479 1481 1484 1486 1487 1489 1490 1492 1493 1494 1498 1502 1504 1505 1506 1507 1508 1510 1511 1513 1514 1515 1515 1516 1517 1517 1519 1519 1520 1520 1521
1392 1393 1390 1392 1400 1401 1399 1402 1404 1405 1407 1403 1394 1389 1391 1393 1394 1396 1398 1398 1400 1403 1407 1411 1406 1398 1400 1407 1412 1415 1417 1419 1420 1423 1425 1428 1430 1433 1434 1436 1440 1442 1444 1446 1449 1452 1456 1458 1460 1464 1466 1469 1472 1475 1477 1479 1481 1483 1486 1488 1490 1493 1495 1495 1495 1499 1502 1503 1504 1505 1507 1509 1510 1512 1514 1515 1516 1516 1517 1518 1519 1520 1520 1520 1521 1521
1390 1393 1392 1391 1396 1399 1398 1400 1408 1416 1416 1405 1392 1386 1388 1390 1392 1395 1397 1397 1399 1401 1402 1403 1399 1396 1400 1406 1410 1413 1416 1418 1421 1423 1425 1427 1429 1433 1435 1437 1440 1442 1445 1449 1451 1454 1458 1460 1463 1466 1468 1471 1473 1475 1477 1480 1482 1483 1486 1488 1490 1494 1497 1496 1496 1499 1501 1502 1504 1506 1508 1509 1511 1513 1514 1515 1517 1518 1519 1520 1521 1521 1522 1521 1522 1522
1391 1393 1393 1391 1394 1399 1400 1404 1417 1424 1415 1403 1396 1392 1390 1391 1392 1395 1397 1396 1397 1399 1399 1399 1398 1399 1403 1406 1408 1411 1416 1420 1423 1424 1426 1427 1430 1433 1435 1438 1441 1443 1446 1450 1452 1455 1458 1461 1464 1467 1469 1471 1472 1474 1477 1479 1481 1484 1486 1488 1490 1493 1496 1497 1498 1499 1501 1502 1503 1506 1508 1509 1511 1513 1515 1517 1519 1520 1521 1521 1522 1523 1523 1523 1523 1523
1392 1393 1393 1392 1395 1404 1412 1414 1418 1419 1411 1405 1403 1398 1397 1398 1398 1401 1403 1399 1396 1397 1398 1399 1398 1400 1406 1408 1408 1411 1417 1422 1425 1427 1427 1429 1431 1434 1436 1438 1441 1444 1447 1450 1453 1456 1459 1462 1465 1468 1470 1472 1474 1476 1478 1479 1482 1485 1487 1489 1491 1494 1496 1497 1498 1500 1501 1502 1504 1506 1508 1509 1512 1514 1516 1518 1520 1521 1522 1523 1523 1524 1524 1524 1524 1524
1390 1392 1393 1395 1396 1402 1411 1412 1410 1412 1413 1410 1405 1401 1400 1400 1399 1402 1407 1404 1398 1397 1398 1399 1399 1400 1404 1407 1408 1412 1418 1423 1427 1428 1429 1430 1432 1435 1437 1440 1443 1446 1448 1451 1454 1457 1460 1463 1465 1467 1470 1474 1477 1479 1480 1481 1484 1486 1488 1490 1493 1495 1497 1498 1500 1501 1501 1502 1504 1506 1508 1510 1512 1515 1517 1519 1521 1522 1522 1523 1524 1524 1524 1525 1525 1525
1390 1390 1393 1399 1400 1399 1404 1407 1408 1413 1414 1407 1401 1398 1399 1400 1398 1399 1405 1404 1398 1397 1399 1400 1399 1401 1404 1407 1410 1414 1418 1421 1424 1427 1429 1431 1433 1435 1438 1441 1444 1446 1449 1452 1455 1457 1461 1464 1466 1468 1471 1475 1478 1480 1482 1484 1486 1488 1490 1492 1493 1495 1497 1499 1500 1501 1501 1503 1505 1507 1510 1512 1514 1516 1518 1519 1521 1522 1523 1524 1525 1525 1525 1526 1526 1526
1392 1390 1391 1397 1401 1401 1406 1408 1407 1410 1409 1403 1399 1398 1399 1402 1400 1400 1407 1407 1398 1395 1399 1400 1400 1402 1404 1407 1410 1413 1416 1418 1419 1423 1427 1430 1433 1435 1438 1441 1445 1447 1450 1453 1455 1457 1460 1464 1468 1471 1473 1476 1479 1481 1483 1485 1487 1489 1490 1492 1494 1496 1497 1498 1500 1501 1502 1504 1506 1508 1511 1513 1515 1516 1518 1519 1521 1522 1523 1524 1525 1525 1526 1527 1527 1527
1396 1395 1395 1399 1400 1401 1404 1405 1404 1406 1406 1402 1401 1401 1400 1401 1402 1406 1414 1414 1404 1399 1400 1399 1400 1402 1406 1410 1412 1412 1413 1415 1415 1420 1426 1431 1433 1436 1439 1442 1445 1448 1451 1454 1457 1459 1462 1465 1468 1471 1474 1477 1479 1482 1484 1486 1488 1489 1491 1492 1494 1496 1496 1498 1499 1501 1503 1505 1506 1509 1511 1513 1515 1517 1518 1520 1521 1522 1523 1524 1525 1526 1527 1528 1528 1528
1399 1399 1398 1399 1400 1400 1402 1403 1403 1407 1407 1402 1401 1404 1402 1402 1406 1412 1415 1414 1409 1406 1403 1401 1402 1405 1409 1413 1413 1413 1414 1415 1416 1420 1426 1431 1434 1437 1440 1443 1446 1449 1452 1455 1457 1460 1463 1466 1469 1472 1475 1477 1480 1482 1485 1487 1488 1489 1491 1492 1494 1495 1496 1497 1499 1501 1503 1505 1507 1510 1512 1513 1515 1517 1518 1520 1522 1523 1524 1524 1525 1527 1527 1528 1528 1528
1400 1401 1399 1399 1398 1398 1399 1399 1400 1407 1409 1404 1402 1403 1403 1405 1411 1415 1413 1411 1411 1410 1406 1406 1408 1410 1412 1414 1415 1415 1416 1417 1418 1422 1426 1430 1434 1437 1441 1444 1446 1450 1453 1455 1457 1461 1464 1467 1470 1473 1475 1478 1481 1483 1485 1486 1487 1489 1490 1492 1493 1494 1495 1497 1499 1501 1503 1505 1507 1510 1512 1513 1515 1517 1519 1521 1522 1523 1524 1525 1526 1527 1528 1528 1528 1528
1397 1400 1400 1398 1396 1397 1399 1400 1403 1410 1411 1406 1404 1405 1405 1409 1415 1416 1414 1413 1412 1410 1408 1409 1412 1413 1414 1416 1417 1418 1418 1419 1421 1424 1427 1431 1435 1438 1441 1444 1446 1450 1453 1455 1458 1462 1464 1467 1470 1473 1476 1479 1481 1483 1485 1486 1487 1488 1490 1491 1492 1494 1495 1498 1500 1502 1504 1506 1508 1509 1511 1513 1515 1517 1519 1521 1522 1524 1525 1526 1527 1527 1528 1528 1529 1529
1399 1402 1401 1397 1395 1397 1402 1405 1408 1411 1410 1408 1409 1410 1411 1413 1415 1416 1416 1415 1413 1412 1411 1410 1413 1415 1415 1416 1418 1420 1421 1422 1424 1426 1429 1433 1436 1438 1442 1445 1447 1450 1453 1456 1459 1462 1465 1468 1470 1474 1477 1479 1481 1483 1484 1485 1486 1487 1489 1490 1492 1494 1496 1498 1501 1502 1504 1506 1508 1510 1512 1514 1516 1518 1520 1522 1523 1524 1525 1526 1527 1528 1529 1530 1530 1530
1403 1402 1402 1404 1404 1402 1403 1407 1410 1411 1411 1411 1413 1414 1414 1416 1417 1417 1416 1415 1414 1414 1413 1412 1414 1415 1416 1418 1420 1422 1424 1425 1426 1428 1431 1434 1437 1439 1442 1445 1447 1450 1453 1457 1460 1463 1466 1468 1471 1474 1477 1479 1481 1483 1484 1485 1486 1487 1488 1490 1492 1494 1496 1498 1501 1502 1504 1507 1509 1512 1513 1515 1517 1518 1520 1522 1524 1525 1526 1527 1528 1530 1531 1531 1532 1532
1401 1401 1401 1408 1412 1409 1407 1409 1410 1411 1413 1414 1415 1416 1416 1417 1417 1418 1417 1415 1415 1415 1415 1415 1416 1417 1418 1419 1422 1424 1426 1427 1428 1431 1433 1435 1438 1441 1443 1445 1448 1451 1454 1457 1460 1463 1466 1469 1471 1474 1477 1479 1482 1483 1484 1485 1485 1486 1488 1490 1492 1495 1497 1499 1501 1503 1505 1508 1510 1512 1514 1516 1517 1519 1521 1523 1524 1526 1527 1528 1530 1531 1531 1532 1533 1533
1399 1400 1400 1402 1406 1408 1409 1411 1410 1411 1414 1415 1415 1416 1417 1417 1418 1418 1417 1417 1417 1417 1417 1418 1418 1419 1420 1421 1423 1425 1427 1428 1430 1432 1435 1437 1440 1442 1443 1446 1449 1452 1455 1458 1461 1464 1467 1469 1472 1475 1477 1479 1482 1483 1483 1484 1485 1486 1488 1490 1493 1495 1497 1500 1502 1504 1506 1509 1511 1514 1516 1517 1518 1520 1522 1524 1525 1527 1529 1530 1531 1531 1531 1532 1533 1534
1400 1400 1398 1397 1401 1407 1408 1408 1410 1412 1414 1414 1415 1416 1417 1418 1419 1419 1419 1419 1419 1418 1419 1420 1420 1421 1422 1423 1424 1426 1428 1429 1431 1433 1436 1438 1440 1442 1444 1447 1450 1453 1456 1459 1462 1465 1467 1470 1472 1475 1477 1480 1481 1482 1483 1484 1485 1487 1488 1491 1493 1495 1498 1500 1503 1505 1507 1509 1512 1514 1516 1518 1519 1521 1522 1523 1525 1526 1528 1530 1530 1529 1529 1530 1531 1533
1403 1402 1399 1396 1404 1414 1412 1408 1409 1411 1411 1414 1416 1417 1418 1419 1420 1420 1420 1420 1419 1419 1420 1421 1421 1422 1423 1424 1425 1427 1428 1430 1432 1434 1437 1439 1440 1442 1445 1448 1451 1454 1457 1460 1463 1465 1468 1470 1473 1475 1477 1479 1480 1482 1483 1484 1486 1487 1488 1491 1493 1495 1498 1501 1503 1505 1507 1510 1512 1515 1516 1518 1520 1521 1521 1522 1523 1524 1526 1527 1527 1528 1529 1530 1531 1532
1404 1408 1406 1401 1407 1415 1415 1411 1411 1412 1412 1415 1418 1420 1421 1421 1421 1421 1421 1420 1420 1420 1421 1422 1423 1423 1424 1425 1426 1428 1429 1431 1433 1435 1438 1440 1440 1442 1444 1447 1450 1453 1456 1459 1463 1466 1468 1471 1473 1475 1477 1479 1480 1481 1483 1484 1486 1487 1489 1491 1493 1495 1498 1501 1503 1506 1508 1511 1513 1516 1518 1519 1520 1521 1521 1521 1523 1524 1525 1526 1527 1528 1530 1531 1531 1532
1409 1413 1413 1411 1412 1414 1413 1413 1414 1415 1416 1418 1420 1422 1422 1422 1421 1422 1422 1422 1422 1422 1422 1423 1423 1424 1424 1425 1426 1428 1430 1431 1433 1435 1438 1440 1441 1442 1444 1447 1448 1451 1455 1458 1460 1463 1467 1470 1473 1476 1477 1478 1480 1481 1482 1484 1486 1488 1490 1492 1493 1495 1498 1500 1502 1505 1508 1511 1513 1515 1518 1520 1520 1520 1521 1522 1523 1524 1525 1527 1528 1529 1531 1532 1532 1533